Wetbulb
29.00 28.98 29.54 31.22 32.53 33.90 35.18 36.95 38.95 41.25 43.90 43.59 43.28 42.75 42.35 41.85 41.71 41.64 41.15 40.77 40.93 40.89
28.65 27.96 27.16 27.77 28.84 29.95 32.28 34.02 36.20 38.61 40.65 42.63 43.81 43.00 42.31 41.38 41.06 41.70 41.69 41.27 40.97 40.44
31.19 30.26 29.53 28.62 27.38 27.57 28.88 30.43 33.09 34.66 37.51 39.28 40.65 42.40 42.31 41.53 41.76 41.37 41.21 41.17 41.34 41.40
31.05 30.52 29.88 28.51 28.15 27.91 28.44 28.68 30.06 31.89 33.98 36.01 37.31 38.69 40.12 40.65 40.66 40.01 40.17 40.39 40.08 40.31
31.42 29.53 28.17 27.27 26.65 27.37 27.65 28.51 28.61 30.46 31.86 34.59 35.71 37.09 37.38 37.45 38.87 38.99 38.98 39.45 39.46 39.19
27.01 27.52 27.85 26.49 26.14 25.83 25.39 27.08 28.15 28.56 29.43 30.81 32.60 34.46 35.93 36.66 36.91 37.37 37.83 38.54 38.81 38.77
24.37 25.29 25.43 25.64 24.59 23.45 23.69 24.36 25.32 26.06 26.89 28.38 30.27 32.23 32.82 35.02 35.66 35.88 35.86 36.37 37.11 38.33
20.84 22.49 22.55 21.52 21.25 22.28 21.03 22.75 21.85 23.60 23.80 24.83 29.19 32.56 32.57 33.23 33.50 34.14 34.13 34.48 34.94 35.88
16.94 18.38 19.13 19.73 20.17 21.49 20.00 18.03 20.00 21.86 23.01 23.69 27.37 32.18 34.35 33.52 31.94 31.88 32.50 32.81 33.57 34.38
14.06 14.15 15.26 16.75 17.16 19.18 19.11 19.89 18.97 20.76 22.87 23.24 25.10 31.33 33.53 34.35 30.51 31.10 31.44 32.48 32.73 32.81
13.10 11.84 12.46 13.38 14.84 16.07 18.02 18.62 20.22 21.17 21.74 22.18 24.86 30.18 32.43 33.79 29.00 28.66 29.77 31.81 32.54 32.60
10.85 11.14 10.39 10.65 12.48 15.45 17.49 18.92 19.84 22.07 21.47 22.18 23.53 28.86 31.02 31.81 27.14 28.77 28.58 30.79 32.19 32.19
7.86 8.57 8.95 10.69 12.47 15.16 16.77 19.82 22.48 23.00 22.10 20.70 22.89 27.54 29.77 31.23 28.81 27.78 28.57 28.89 31.17 32.20
9.97 9.66 11.03 12.78 14.09 15.41 16.10 18.07 18.37 20.63 21.38 20.54 21.59 23.26 29.46 31.38 27.12 29.34 26.06 26.64 28.94 30.79
MSLP
1026.34 1026.04 1025.69 1025.03 1024.32 1023.76 1022.89 1022.59 1022.25 1021.07 1020.10 1019.96 1019.89 1020.23 1020.12 1020.72 1020.65 1020.68 1020.69 1020.67 1020.76 1020.62
1026.89 1026.59 1026.46 1026.05 1025.49 1024.53 1023.98 1023.43 1022.59 1021.65 1021.00 1020.51 1020.30 1020.24 1019.96 1020.97 1020.74 1021.07 1020.88 1020.95 1020.99 1020.70
1027.21 1026.81 1026.68 1026.43 1025.95 1025.38 1024.79 1023.68 1023.18 1022.51 1022.10 1021.76 1021.22 1020.69 1020.67 1020.83 1020.88 1021.01 1020.94 1020.96 1020.73 1020.86
1027.44 1027.19 1026.81 1026.80 1026.41 1025.97 1025.54 1024.98 1024.08 1023.10 1022.83 1022.42 1021.92 1021.40 1021.34 1021.23 1021.02 1021.04 1020.89 1020.85 1020.66 1020.70
1027.81 1027.43 1027.24 1027.16 1026.88 1026.22 1025.53 1025.11 1024.71 1024.04 1023.50 1023.19 1022.67 1022.23 1021.81 1021.58 1021.34 1021.05 1020.93 1020.63 1020.68 1020.81
1028.42 1027.90 1027.90 1027.66 1027.34 1026.95 1026.35 1025.61 1025.03 1024.66 1024.19 1023.79 1023.37 1023.08 1022.47 1021.98 1021.51 1021.39 1021.16 1020.73 1020.91 1020.85
1029.60 1029.00 1028.47 1027.90 1027.73 1027.37 1026.99 1026.45 1025.89 1025.32 1025.01 1024.50 1023.98 1023.45 1023.10 1022.54 1021.96 1021.84 1021.81 1021.64 1021.50 1021.04
1031.14 1030.20 1029.40 1028.44 1027.75 1027.53 1027.27 1026.82 1026.79 1025.87 1025.27 1024.85 1024.32 1023.73 1023.13 1022.75 1022.62 1022.36 1022.11 1021.85 1021.49 1021.33
1031.46 1030.85 1030.27 1029.39 1028.49 1027.78 1027.30 1027.02 1026.95 1026.29 1025.64 1025.04 1024.49 1023.90 1023.39 1023.10 1023.19 1022.96 1022.54 1022.03 1021.66 1021.41
1031.77 1031.23 1030.69 1030.03 1029.30 1028.53 1027.85 1027.28 1026.90 1026.28 1025.87 1025.22 1024.72 1024.13 1023.50 1023.20 1023.12 1023.28 1022.80 1022.35 1022.04 1021.69
1032.34 1031.71 1031.12 1030.46 1029.79 1029.02 1028.38 1027.66 1027.06 1026.36 1025.85 1025.39 1024.69 1024.22 1023.72 1023.29 1023.15 1022.85 1022.73 1022.68 1022.27 1021.95
1032.96 1032.16 1031.53 1030.90 1030.17 1029.38 1028.53 1027.80 1026.93 1026.28 1025.93 1025.59 1024.76 1024.29 1023.72 1023.44 1023.19 1023.15 1023.12 1022.88 1022.61 1022.25
1033.10 1032.51 1031.79 1031.10 1030.32 1029.55 1028.77 1027.79 1027.03 1026.43 1025.93 1025.48 1024.93 1024.24 1023.70 1023.46 1023.27 1023.42 1023.11 1022.80 1022.59 1022.10
1033.10 1032.62 1031.91 1030.99 1030.29 1029.50 1028.60 1027.66 1026.94 1026.33 1025.70 1025.30 1024.98 1024.20 1023.57 1023.26 1023.20 1023.40 1023.12 1022.81 1022.50 1022.23
Wind_Speed
9 6 7 9 7 6 8 8 10 9 8 3 3 1 3 2 2 1 2 2 3 2
7 8 7 8 6 5 6 7 9 10 10 10 4 2 3 3 2 3 2 3 4 2
7 6 7 6 8 9 9 9 9 9 9 9 8 6 2 2 3 4 3 3 2 2
4 5 5 6 7 6 6 8 9 10 10 9 9 8 6 4 3 4 3 3 3 3
6 5 5 6 8 8 8 8 8 8 8 9 8 8 7 6 6 5 4 3 2 3
10 9 7 5 5 7 8 8 8 8 9 8 8 8 8 7 7 6 6 6 4 3
12 11 9 6 5 5 5 6 6 6 6 7 6 6 7 8 6 6 5 4 4 4
10 10 9 9 7 5 3 4 5 5 5 6 5 6 7 7 8 6 5 5 4 4
9 10 10 11 10 9 7 3 4 6 5 5 5 12 13 9 5 7 6 5 5 4
9 10 11 10 9 11 10 8 6 5 5 5 6 12 12 12 4 4 6 6 5 5
10 9 10 10 10 9 7 7 8 7 6 5 4 12 12 11 5 4 4 6 5 4
8 11 10 10 10 10 9 8 7 6 7 7 7 12 12 9 4 4 6 7 6 4
6 7 10 10 10 9 8 9 7 8 5 6 8 12 12 8 2 5 4 4 6 9
8 10 9 11 10 9 10 9 8 7 6 6 6 8 14 11 1 3 3 3 4 5
Wind_Direction
17 12 3 358 4 356 9 348 325 338 3 18 63 357 74 325 299 261 252 250 258 244
11 14 3 349 340 357 3 343 345 353 1 0 352 343 75 280 296 271 237 233 237 235
355 5 0 354 1 353 345 350 354 2 3 3 9 11 10 272 248 246 231 229 227 246
347 355 11 356 351 356 346 348 354 2 359 5 359 6 354 357 321 266 265 246 208 215
345 4 10 3 345 345 357 354 356 358 10 8 359 357 3 352 355 342 315 323 304 248
348 356 351 345 340 346 346 352 360 3 2 355 355 354 352 348 356 356 349 0 326 296
346 343 331 336 332 344 338 346 346 354 352 347 337 348 344 350 354 354 345 349 336 332
332 337 339 345 343 328 325 344 326 337 347 341 342 351 356 356 350 349 340 342 0 348
351 349 346 346 344 344 339 343 321 335 338 342 339 341 355 5 354 346 336 339 342 351
351 350 345 339 339 348 344 335 319 323 329 332 329 336 346 351 350 348 346 336 338 340
346 344 339 337 337 333 332 329 324 315 317 314 313 332 335 345 347 345 347 341 334 337
336 338 334 333 329 324 328 325 322 317 313 310 309 324 329 334 341 343 358 350 342 341
322 325 322 315 317 314 310 309 316 311 300 290 295 311 318 322 332 348 334 335 345 344
333 324 313 312 317 313 315 315 311 303 299 280 274 297 306 309 288 303 306 322 335 335